Temperature
16 15 15 15 15 15 15 15 15 15 15 15 16 16 16 16 16 16 16 17 17 17 17 17 17 17 17 17 18 18 18 18 18 18 18 17 17 17 17 17 17 17 17
16 15 15 15 15 15 15 15 15 15 15 15 15 16 16 16 16 16 16 16 17 17 17 17 17 17 17 17 17 17 18 18 18 18 17 17 17 17 17 17 17 17 17
15 15 15 15 15 14 14 14 15 15 15 15 15 15 16 16 16 16 16 16 16 17 17 17 17 17 17 17 17 17 18 18 18 18 18 17 17 17 17 17 17 17 17
15 15 15 14 14 14 14 14 14 14 15 15 15 15 16 16 16 16 16 16 16 16 17 17 17 17 17 17 17 17 17 18 18 18 18 17 17 17 17 17 17 17 17
15 15 14 14 14 14 14 14 14 14 15 15 15 15 16 16 16 16 16 16 16 16 16 17 17 17 17 17 17 17 17 17 18 18 18 17 17 17 17 17 17 17 17
15 14 14 14 14 14 14 14 14 14 14 15 15 15 15 16 16 16 16 16 16 16 16 16 17 17 17 17 17 17 17 17 17 17 17 17 17 17 17 17 17 17 17
14 14 14 14 14 14 14 14 14 14 14 14 15 15 15 16 16 16 16 16 16 16 16 16 16 16 17 17 17 17 17 17 17 17 17 17 17 17 17 17 17 17 17
14 14 14 14 14 14 14 14 14 14 14 14 15 15 15 15 16 16 16 16 16 16 16 16 16 16 16 17 17 17 17 17 17 17 17 17 17 17 17 17 17 17 17
15 14 14 14 14 14 14 14 14 14 14 14 14 14 15 15 15 15 15 16 16 16 16 16 16 16 16 16 16 17 17 17 17 17 17 17 17 17 17 17 17 17 17
15 14 14 14 14 14 14 14 14 14 14 14 14 14 14 15 15 15 15 15 15 15 15 16 16 16 16 16 16 16 17 17 17 17 17 17 17 17 17 17 17 17 17
15 15 14 14 14 14 14 14 14 14 14 14 14 14 15 15 15 15 15 15 15 15 15 15 15 16 16 16 16 16 17 17 17 17 17 17 17 17 17 17 17 17 17
16 15 15 14 14 14 14 14 14 14 14 14 14 14 14 14 14 15 15 15 15 15 15 15 15 15 15 16 16 16 16 16 16 16 17 17 17 17 17 17 17 17 17
16 15 15 15 14 14 14 14 14 14 14 14 14 14 14 14 14 14 14 14 15 15 15 15 15 15 15 15 15 16 16 16 16 16 16 16 16 17 17 17 17 17 17
16 16 15 15 15 14 14 14 14 14 14 14 14 14 14 14 14 14 14 14 14 14 15 15 15 15 15 15 15 16 16 16 16 16 16 16 16 16 16 16 17 17 17
16 16 15 15 15 15 14 14 14 14 14 14 14 14 14 14 14 14 14 14 14 14 14 15 14 15 15 15 15 15 15 16 16 16 16 16 16 16 16 16 16 16 16
16 16 15 15 15 15 15 14 14 14 14 14 14 14 14 14 14 14 14 14 14 14 14 15 14 14 14 14 15 15 15 15 15 16 16 16 16 16 16 16 16 16 16
16 16 16 15 15 15 15 15 14 14 14 14 14 14 14 14 14 14 14 14 14 14 14 14 14 14 14 14 14 14 15 15 15 15 15 16 16 16 16 16 16 16 16
16 16 16 16 15 15 15 15 15 14 14 14 14 14 14 14 14 14 14 14 14 14 14 14 14 14 14 14 14 14 14 14 15 15 15 15 15 15 16 16 16 16 16
15 15 16 15 15 15 15 15 15 15 14 14 14 14 14 14 14 14 14 14 14 14 14 14 14 14 14 14 14 14 14 14 14 14 14 15 15 15 15 15 15 15 15
15 15 15 15 15 15 15 15 15 15 15 14 14 14 14 14 14 14 14 14 13 13 14 14 14 14 14 13 13 13 14 14 14 14 14 14 14 14 15 15 15 15 15
15 15 15 15 15 15 15 15 15 15 15 15 15 14 14 14 14 14 14 14 13 13 13 13 13 13 13 13 13 13 13 13 13 13 14 14 14 14 14 14 14 14 14
14 14 14 14 15 14 14 14 14 14 14 15 15 15 14 14 14 14 14 14 14 13 13 13 13 13 14 14 13 13 13 13 13 13 13 13 13 13 13 14 14 14 14
14 14 14 14 14 14 14 14 14 14 14 14 14 14 14 14 14 14 14 14 14 13 13 13 13 13 13 13 13 13 13 13 13 13 13 13 13 13 13 13 13 13 13
13 13 14 14 14 14 14 14 14 14 14 14 14 14 14 14 14 14 14 14 14 14 13 13 13 13 13 13 13 13 13 13 13 13 13 13 13 13 13 13 13 13 13
13 13 13 13 13 13 13 13 13 13 13 14 14 14 14 14 14 14 14 14 14 14 13 13 13 13 13 13 13 13 13 12 12 12 12 12 12 12 12 12 12 12 12
12 12 12 13 13 13 13 13 13 13 13 13 13 13 13 13 13 14 14 14 14 14 13 13 13 13 13 13 13 13 13 12 12 12 12 12 12 12 12 12 12 12 12
Wind_Speed
3 3 2 2 4 6 4 4 4 4 5 5 5 4 2 2 2 1 4 7 6 5 4 3 4 4 5 5 7 7 7 7 7 8 9 10 13 14 14 14 13 14 14
3 2 3 3 3 5 4 4 5 4 4 3 4 4 3 2 2 1 3 5 6 6 5 5 5 5 5 6 7 8 8 9 9 8 8 10 12 14 14 13 13 13 14
4 3 4 4 3 6 6 4 5 4 5 4 4 3 2 2 1 2 2 3 5 6 6 5 6 6 6 6 7 7 8 9 9 9 9 9 11 13 13 13 12 12 13
7 4 4 4 4 5 4 4 3 4 5 5 4 3 1 1 2 2 2 2 4 5 6 6 6 7 6 7 7 8 8 9 10 9 9 9 10 11 13 13 12 12 12
9 5 3 3 5 3 4 6 5 4 5 5 4 2 2 1 1 1 1 1 2 5 6 7 8 7 7 7 8 8 8 9 10 10 9 10 11 11 12 12 12 12 12
7 6 3 4 4 4 4 5 5 5 3 4 5 3 2 1 0 1 1 1 0 2 5 6 7 7 8 7 8 8 8 9 10 10 10 10 11 12 12 12 12 12 12
5 4 3 4 3 3 4 5 4 6 4 4 3 3 3 1 1 1 1 1 0 1 3 5 6 5 7 8 8 8 9 9 10 10 11 11 11 12 12 12 12 12 12
4 5 4 4 4 2 3 4 4 4 4 4 3 2 2 2 3 2 1 1 1 1 1 3 3 3 5 8 8 8 9 9 9 10 10 11 12 12 13 13 13 12 12
2 3 4 4 4 3 3 3 4 5 4 4 3 2 2 2 2 2 2 2 2 1 1 1 2 2 4 7 7 8 9 9 9 9 10 11 12 13 13 13 13 13 13
1 0 3 4 4 3 3 4 4 3 3 4 3 2 1 1 1 1 2 2 3 3 2 2 2 3 3 5 6 7 8 8 8 9 10 10 11 12 13 13 14 13 13
2 2 1 3 3 2 2 3 3 3 3 3 3 3 3 2 1 0 1 2 2 2 1 1 2 2 3 4 5 6 8 8 7 8 9 9 9 11 12 13 13 13 13
2 3 2 2 2 2 2 2 3 3 2 2 3 2 2 2 2 1 0 1 1 1 0 1 2 1 3 5 5 6 7 8 7 7 7 7 8 9 11 12 12 13 13
1 2 1 1 1 1 1 2 3 3 2 2 2 2 2 1 1 1 1 1 1 1 0 0 1 2 3 5 5 6 7 7 7 7 7 7 7 7 9 10 11 12 13
1 1 1 2 1 1 2 2 2 3 2 2 2 2 2 2 1 1 0 0 1 1 0 1 0 2 3 5 5 6 5 7 7 7 7 7 7 7 7 7 8 9 10
1 1 2 3 3 2 2 2 2 3 3 1 2 2 2 2 1 1 0 1 1 0 2 2 1 2 3 4 5 5 5 7 8 8 8 7 7 7 6 6 7 7 7
2 2 3 4 4 3 4 2 3 3 4 2 2 2 2 2 2 1 1 1 1 2 2 2 1 1 2 3 5 4 5 7 8 9 8 8 7 7 7 6 6 7 7
4 4 5 4 4 3 3 4 3 3 4 4 3 2 2 2 1 2 1 2 2 2 2 2 1 1 2 2 2 3 5 6 7 9 9 9 9 8 8 7 7 7 7
4 4 4 4 4 3 4 4 4 4 4 5 4 3 3 2 2 2 2 3 2 2 2 2 1 1 2 3 3 3 3 5 6 8 10 10 10 10 9 8 8 8 7
5 5 5 4 4 4 4 5 5 5 5 5 5 4 4 2 2 2 3 2 2 2 2 2 2 1 1 2 2 1 2 1 3 7 9 9 10 9 9 9 8 8 7
6 6 5 4 4 4 5 5 4 5 6 6 5 5 5 4 4 3 3 3 3 2 2 2 2 2 2 2 2 2 1 1 2 3 5 7 9 9 9 8 8 7 7
7 6 6 6 5 4 4 3 4 6 6 6 6 6 5 6 6 4 3 2 2 2 2 2 3 2 2 2 3 3 2 2 2 2 2 3 4 5 6 7 8 8 7
7 6 6 6 6 6 5 5 4 6 7 8 7 6 6 7 9 10 8 6 5 3 3 3 3 4 4 4 3 3 3 2 2 2 2 2 3 4 4 6 8 9 9
6 7 7 7 7 8 8 8 7 6 7 9 8 7 7 7 9 8 10 10 8 8 7 4 4 5 5 5 5 3 3 4 3 3 2 2 2 3 3 7 11 11 10
6 6 7 7 8 8 9 9 9 7 8 9 9 9 8 7 8 8 8 8 8 8 8 6 5 5 4 4 6 5 5 3 1 1 3 2 2 2 3 6 10 11 10
7 7 7 7 8 9 10 9 8 5 7 9 10 10 9 8 10 11 9 9 8 7 8 8 8 7 6 5 5 4 3 3 2 3 3 3 2 2 2 3 7 10 10
7 7 8 8 9 9 10 10 8 5 6 7 8 9 11 10 9 8 8 9 10 8 7 6 6 6 6 6 7 6 5 5 3 3 3 3 3 2 2 2 3 6 7
Wind_Direction
9 1 351 26 4 3 357 341 321 344 335 319 322 330 342 326 314 78 137 153 150 151 160 166 162 160 159 156 152 145 135 129 121 117 118 118 122 123 123 122 119 119 118
19 357 356 14 13 354 342 334 327 330 315 319 320 324 324 317 321 338 169 166 169 167 169 178 174 165 165 163 161 156 147 141 134 128 127 128 130 131 130 130 128 126 126
21 27 8 5 2 352 351 345 337 334 327 324 318 312 307 319 289 275 233 178 172 176 179 182 182 172 169 168 166 163 156 150 144 138 136 138 139 139 139 138 136 134 132
25 38 13 353 353 358 354 332 348 346 340 337 331 321 323 289 264 238 237 195 174 172 176 185 182 175 172 172 169 168 162 157 154 149 147 148 146 146 147 146 144 142 138
15 26 2 344 358 4 1 346 3 348 337 330 314 307 319 321 288 277 220 188 166 160 164 174 179 178 173 173 172 170 167 163 161 157 156 159 157 155 154 153 152 151 146
10 11 346 358 12 7 359 346 347 334 322 317 326 345 322 298 307 1 42 65 99 165 160 161 168 180 179 171 173 174 170 171 171 165 165 165 164 164 161 160 159 158 156
15 2 347 348 1 6 2 357 349 336 337 336 342 337 329 337 33 42 30 54 1 57 107 138 159 171 173 176 175 178 174 175 177 173 171 171 170 170 169 168 166 166 165
23 357 358 345 350 358 10 352 350 342 335 347 344 342 342 1 10 15 23 43 54 43 102 128 135 155 163 161 173 178 178 175 180 179 176 176 176 177 176 176 174 174 174
52 8 344 338 338 2 8 354 2 357 340 333 356 14 8 351 336 348 15 34 46 43 49 79 100 102 138 149 156 175 181 179 180 182 179 179 182 183 182 182 180 180 180
125 37 331 323 329 353 15 355 13 353 345 338 338 345 331 324 349 335 346 14 30 45 37 45 64 83 98 111 138 158 171 177 181 182 181 183 188 189 187 186 186 186 185
165 161 287 306 325 351 20 1 351 351 353 353 339 334 337 342 319 186 308 342 13 23 37 74 86 71 87 111 126 145 162 168 175 177 180 184 192 195 193 191 191 191 192
191 177 206 281 306 341 3 344 330 341 337 339 336 347 353 358 335 340 315 316 352 318 5 90 123 121 98 107 127 139 149 157 164 167 173 180 188 195 198 194 193 194 195
212 183 177 261 278 315 315 310 318 312 310 327 337 344 338 332 320 331 7 322 307 277 24 49 149 127 121 123 127 134 144 155 159 161 162 164 172 185 197 201 201 201 200
231 150 193 259 262 290 309 301 298 303 309 329 346 349 323 321 324 330 198 39 336 328 359 230 159 145 129 134 146 148 149 163 162 165 164 165 171 180 187 191 196 201 204
251 202 247 250 234 223 259 303 299 306 318 329 330 330 319 293 295 309 279 181 158 256 258 213 193 175 144 141 158 170 163 172 173 173 174 175 178 181 179 184 193 194 197
289 256 252 255 248 222 205 223 271 288 303 275 235 255 298 310 316 302 274 264 205 189 246 233 208 194 155 147 158 158 161 167 182 185 185 184 186 189 189 193 195 197 198
270 260 251 252 254 242 219 203 227 254 278 288 283 236 242 242 279 296 289 274 253 200 222 256 222 187 155 150 156 174 170 174 182 188 189 192 191 194 197 202 205 203 203
273 271 278 272 267 258 246 226 225 241 243 258 272 283 271 245 224 263 284 281 263 227 197 227 235 212 176 178 176 189 189 183 175 187 189 193 194 198 200 202 206 205 201
292 283 274 271 272 269 266 254 236 242 239 240 238 243 256 256 236 241 242 258 269 255 194 199 227 202 194 185 158 194 212 178 167 179 186 193 193 193 194 195 196 195 192
306 300 293 282 272 266 263 268 272 264 257 246 232 227 228 224 225 241 239 242 252 248 225 210 215 202 200 192 163 188 203 196 189 173 169 176 183 185 187 186 185 183 185
311 306 307 306 299 286 276 294 295 291 287 273 252 232 220 212 206 211 227 238 251 241 228 213 214 211 203 186 197 195 187 193 213 186 155 167 158 162 177 181 180 179 180
308 309 307 301 297 295 286 275 282 295 292 287 274 252 227 216 212 212 217 217 214 222 228 218 215 217 213 198 187 179 179 179 220 202 162 202 170 167 162 164 175 180 181
304 301 298 294 289 285 277 268 262 273 280 281 279 272 263 237 211 211 215 221 226 228 224 223 231 222 212 194 176 185 196 195 206 190 143 217 193 169 150 157 163 168 170
306 296 289 287 287 286 276 267 264 261 271 271 270 266 262 254 228 211 208 213 218 222 224 223 234 231 217 186 173 180 186 182 184 182 152 187 198 173 153 150 163 163 164
300 295 293 289 284 283 272 265 261 264 268 272 270 267 264 257 241 224 213 215 218 220 220 208 204 206 193 183 170 151 163 165 206 222 186 172 182 156 155 163 171 170 168
298 300 298 292 287 284 281 270 258 265 270 279 279 270 262 258 253 238 227 218 221 216 202 201 205 205 198 195 194 184 181 183 190 206 198 168 172 153 167 164 156 171 178
Height
1526 1525 1524 1522 1521 1520 1519 1517 1517 1516 1515 1515 1514 1514 1514 1514 1515 1515 1515 1516 1517 1518 1519 1520 1521 1522 1524 1525 1527 1528 1529 1530 1531 1533 1534 1535 1536 1538 1540 1542 1544 1545 1547
1526 1525 1524 1522 1521 1520 1518 1517 1516 1515 1514 1514 1513 1513 1513 1513 1513 1514 1514 1515 1516 1517 1518 1519 1520 1522 1523 1525 1527 1528 1530 1531 1532 1534 1535 1536 1538 1540 1542 1544 1546 1548 1549
1526 1525 1523 1522 1521 1519 1518 1517 1516 1515 1514 1513 1513 1512 1512 1512 1513 1513 1513 1514 1515 1516 1517 1518 1520 1521 1523 1524 1526 1528 1530 1531 1533 1534 1536 1537 1539 1541 1543 1546 1548 1549 1551
1526 1525 1523 1522 1521 1519 1518 1517 1515 1514 1513 1513 1512 1512 1512 1511 1512 1512 1513 1513 1514 1515 1516 1518 1519 1521 1522 1524 1526 1527 1529 1531 1533 1535 1536 1538 1540 1542 1545 1547 1548 1550 1552
1526 1524 1523 1522 1520 1519 1517 1516 1515 1514 1513 1512 1512 1511 1511 1511 1511 1512 1512 1513 1514 1514 1516 1517 1518 1520 1522 1523 1525 1527 1529 1531 1533 1535 1537 1539 1541 1543 1545 1547 1549 1551 1553
1525 1524 1523 1522 1520 1519 1517 1516 1515 1514 1513 1512 1512 1511 1511 1511 1511 1511 1512 1512 1513 1514 1515 1516 1517 1519 1521 1522 1524 1526 1528 1530 1532 1534 1536 1539 1541 1543 1545 1547 1550 1552 1553
1525 1524 1523 1522 1520 1519 1518 1516 1515 1514 1513 1512 1512 1511 1510 1510 1511 1511 1511 1512 1513 1513 1514 1515 1516 1518 1519 1521 1523 1525 1527 1529 1531 1534 1536 1538 1541 1543 1545 1547 1549 1551 1553
1525 1524 1523 1522 1521 1520 1518 1517 1515 1514 1513 1513 1512 1511 1511 1512 1511 1511 1511 1511 1512 1513 1513 1514 1516 1517 1518 1520 1522 1524 1526 1528 1530 1533 1535 1537 1540 1542 1544 1547 1549 1551 1553
1525 1523 1522 1522 1521 1520 1519 1518 1516 1515 1514 1513 1513 1513 1512 1512 1512 1512 1511 1511 1512 1512 1513 1513 1514 1516 1517 1519 1521 1522 1525 1527 1529 1531 1534 1536 1539 1541 1543 1545 1548 1550 1552
1525 1523 1522 1522 1521 1520 1519 1518 1517 1515 1514 1513 1513 1513 1514 1513 1513 1512 1512 1512 1512 1512 1512 1513 1514 1515 1516 1517 1519 1521 1523 1525 1527 1530 1532 1534 1537 1539 1542 1544 1546 1548 1550
1525 1524 1523 1522 1521 1520 1519 1518 1517 1516 1515 1514 1513 1513 1513 1513 1512 1512 1512 1512 1512 1512 1512 1512 1513 1513 1515 1516 1518 1520 1521 1523 1526 1528 1530 1533 1535 1537 1540 1542 1544 1547 1549
1525 1524 1523 1522 1521 1520 1519 1518 1517 1516 1515 1514 1514 1513 1513 1512 1512 1512 1511 1511 1511 1511 1511 1512 1512 1513 1514 1515 1516 1518 1520 1522 1524 1526 1528 1530 1533 1535 1538 1540 1542 1544 1546
1526 1524 1523 1522 1521 1520 1519 1518 1517 1516 1515 1515 1514 1513 1512 1512 1511 1511 1511 1511 1511 1511 1511 1511 1511 1512 1513 1514 1515 1517 1518 1520 1522 1524 1527 1529 1531 1533 1535 1537 1539 1542 1544
1525 1524 1523 1522 1521 1520 1519 1518 1517 1516 1515 1515 1514 1513 1512 1512 1511 1511 1511 1511 1510 1510 1510 1511 1511 1511 1512 1513 1514 1515 1517 1518 1520 1522 1524 1526 1529 1531 1533 1535 1537 1539 1541
1524 1523 1522 1521 1520 1519 1518 1517 1516 1515 1515 1514 1513 1512 1511 1511 1510 1510 1510 1510 1511 1510 1510 1510 1511 1511 1511 1512 1513 1514 1515 1517 1518 1520 1522 1524 1526 1528 1530 1532 1534 1536 1538
1523 1522 1521 1520 1519 1518 1517 1516 1515 1515 1514 1513 1512 1511 1510 1510 1509 1509 1509 1509 1509 1509 1509 1509 1509 1510 1510 1511 1511 1512 1513 1515 1516 1518 1520 1521 1523 1525 1527 1529 1531 1533 1535
1521 1520 1520 1519 1518 1517 1516 1515 1514 1513 1513 1512 1511 1510 1509 1509 1508 1508 1507 1507 1507 1508 1507 1508 1508 1508 1509 1509 1509 1510 1511 1512 1514 1515 1517 1518 1520 1522 1524 1526 1527 1529 1531
1519 1519 1518 1517 1517 1516 1515 1514 1513 1512 1511 1510 1510 1509 1508 1507 1507 1506 1506 1505 1505 1506 1506 1505 1506 1506 1507 1507 1508 1508 1509 1510 1511 1513 1514 1515 1517 1519 1521 1522 1524 1526 1528
1517 1517 1516 1515 1514 1514 1513 1512 1511 1510 1509 1508 1508 1507 1506 1505 1505 1504 1504 1503 1503 1503 1503 1503 1504 1504 1504 1505 1506 1506 1507 1508 1509 1510 1511 1513 1514 1515 1517 1519 1520 1522 1524
1515 1514 1513 1513 1512 1511 1510 1509 1509 1508 1507 1506 1505 1504 1504 1503 1502 1502 1501 1501 1501 1501 1501 1501 1501 1501 1502 1503 1503 1504 1505 1506 1506 1508 1509 1510 1511 1512 1514 1515 1517 1518 1520
1512 1511 1510 1509 1508 1508 1507 1506 1505 1504 1503 1503 1502 1501 1501 1500 1499 1499 1499 1498 1498 1498 1498 1498 1498 1499 1499 1500 1500 1501 1502 1503 1504 1505 1506 1507 1508 1509 1510 1512 1513 1515 1516
1508 1508 1507 1506 1505 1504 1503 1502 1501 1500 1499 1499 1498 1498 1497 1496 1496 1495 1495 1495 1495 1495 1495 1495 1495 1496 1496 1497 1497 1498 1499 1500 1501 1503 1503 1504 1505 1506 1507 1508 1510 1511 1513
1505 1504 1503 1502 1501 1500 1499 1498 1497 1496 1494 1494 1493 1493 1492 1492 1492 1491 1491 1491 1491 1491 1492 1492 1492 1492 1493 1493 1494 1495 1496 1497 1498 1499 1500 1501 1502 1503 1504 1505 1506 1508 1509
1502 1500 1499 1498 1496 1495 1495 1493 1492 1491 1489 1488 1488 1488 1488 1487 1487 1487 1486 1486 1486 1486 1487 1488 1488 1488 1490 1490 1491 1492 1493 1494 1495 1496 1497 1498 1499 1500 1501 1502 1503 1504 1505
1499 1497 1495 1494 1492 1490 1490 1489 1487 1485 1484 1482 1482 1482 1482 1481 1482 1482 1482 1481 1481 1481 1482 1483 1484 1484 1485 1487 1487 1488 1489 1490 1491 1492 1493 1494 1495 1497 1498 1499 1500 1501 1502
1496 1494 1491 1490 1488 1486 1485 1484 1482 1480 1478 1476 1476 1475 1475 1475 1475 1474 1475 1475 1475 1476 1477 1478 1479 1480 1481 1482 1483 1484 1485 1486 1487 1488 1489 1491 1492 1493 1494 1495 1496 1498 1499